Location: *
(34.8620°S, 39.3380°E)
Time: 04:15:09
(UTC+00:00)

Cosmos 1300 - Visible Passes

Search period start: 30 November 2021 00:00
Search period end: 10 December 2021 00:00
Orbit: 509 x 512 km, 82.5° (Epoch: 29 November)

Date Brightness Start Highest point End Pass type
(mag) Time Alt. Az. Time Alt. Az. Time Alt. Az.
30 Nov 4.8 22:48:03 25° SSW 22:48:03 25° SSW 22:49:49 10° S visible
01 Dec 4.9 22:31:36 24° S 22:31:36 24° S 22:33:15 10° S visible
02 Dec 5.1 22:15:08 22° S 22:15:08 22° S 22:16:38 10° S visible
03 Dec 5.3 21:58:39 20° SSE 21:58:39 20° SSE 21:59:58 10° SSE visible
04 Dec 5.4 21:42:09 18° SSE 21:42:09 18° SSE 21:43:16 10° SSE visible
05 Dec 5.5 21:25:39 15° SSE 21:25:39 15° SSE 21:26:30 10° SSE visible
06 Dec 5.7 21:09:07 13° SE 21:09:07 13° SE 21:09:39 10° SSE visible
06 Dec 5.5 22:44:01 11° SW 22:44:01 11° SW 22:44:24 10° SW visible
07 Dec 5.8 20:52:35 11° SE 20:52:35 11° SE 20:52:44 10° SE visible
07 Dec 5.5 22:27:29 13° SW 22:27:29 13° SW 22:28:13 10° SSW visible
08 Dec 5.4 22:10:56 15° SSW 22:10:56 15° SSW 22:11:53 10° SSW visible
09 Dec 5.4 21:54:22 17° SSW 21:54:22 17° SSW 21:55:29 10° SSW visible
